GLO1776 SBRF-SBFN

Flight info

Callsign GLO1776
Flight time 0h 51m
Altitude 35000
Route DCT FNR DCT
Aircraft B738/M-SDE2E3FGHIRWXY/LB1

Departure

Time 2026-04-26 13:58
Airport Recife/Guararapes - Gilberto Freyre International Airport (SBRF)

Arrival

Time 2026-04-26 14:50
Airport Fernando de Noronha Airport (SBFN)
Time Latitude Longitude Altitude Speed Heading
2026-04-26 13:35 -8.13142 -34.91921 40 ft 0 kts 72°
2026-04-26 13:44 -8.13143 -34.91924 40 ft 4 kts 72°
2026-04-26 13:44 -8.13151 -34.91950 38 ft 4 kts 72°
2026-04-26 13:44 -8.13160 -34.91975 40 ft 4 kts 69°
2026-04-26 13:44 -8.13170 -34.91995 38 ft 2 kts 48°
2026-04-26 13:45 -8.13179 -34.92002 40 ft 2 kts
2026-04-26 13:45 -8.13190 -34.92001 40 ft 2 kts 344°
2026-04-26 13:45 -8.13197 -34.91999 38 ft 0 kts 342°
2026-04-26 13:48 -8.13176 -34.92005 39 ft 6 kts 344°
2026-04-26 13:49 -8.13135 -34.92009 39 ft 6 kts 354°
2026-04-26 13:49 -8.13095 -34.92020 39 ft 6 kts 341°
2026-04-26 13:49 -8.13057 -34.92034 39 ft 6 kts 340°
2026-04-26 13:49 -8.13020 -34.92048 40 ft 6 kts 340°
2026-04-26 13:50 -8.12983 -34.92061 41 ft 6 kts 340°
2026-04-26 13:50 -8.12947 -34.92075 40 ft 6 kts 340°
2026-04-26 13:50 -8.12911 -34.92088 41 ft 5 kts 340°
2026-04-26 13:50 -8.12875 -34.92099 41 ft 5 kts 345°
2026-04-26 13:51 -8.12839 -34.92108 40 ft 5 kts 346°
2026-04-26 13:51 -8.12803 -34.92117 40 ft 5 kts 343°
2026-04-26 13:51 -8.12769 -34.92128 41 ft 5 kts 343°
2026-04-26 13:51 -8.12735 -34.92139 40 ft 5 kts 341°
2026-04-26 13:52 -8.12701 -34.92151 41 ft 5 kts 341°
2026-04-26 13:52 -8.12667 -34.92163 41 ft 5 kts 340°
2026-04-26 13:52 -8.12634 -34.92175 41 ft 5 kts 341°
2026-04-26 13:52 -8.12601 -34.92185 41 ft 5 kts 344°
2026-04-26 13:53 -8.12567 -34.92195 39 ft 5 kts 343°
2026-04-26 13:53 -8.12533 -34.92205 40 ft 5 kts 343°
2026-04-26 13:53 -8.12499 -34.92216 40 ft 6 kts 342°
2026-04-26 13:53 -8.12448 -34.92233 40 ft 10 kts 341°
2026-04-26 13:54 -8.12365 -34.92262 40 ft 14 kts 341°
2026-04-26 13:54 -8.12270 -34.92294 40 ft 14 kts 341°
2026-04-26 13:54 -8.12177 -34.92326 40 ft 14 kts 341°
2026-04-26 13:55 -8.12004 -34.92385 39 ft 13 kts 341°
2026-04-26 13:55 -8.11948 -34.92402 38 ft 13 kts 344°
2026-04-26 13:55 -8.11758 -34.92460 38 ft 12 kts 341°
2026-04-26 13:56 -8.11681 -34.92486 39 ft 11 kts 341°
2026-04-26 13:56 -8.11608 -34.92514 40 ft 11 kts 329°
2026-04-26 13:56 -8.11549 -34.92562 40 ft 11 kts 320°
2026-04-26 13:56 -8.11491 -34.92610 40 ft 11 kts 320°
2026-04-26 13:57 -8.11436 -34.92657 40 ft 10 kts 320°
2026-04-26 13:57 -8.11436 -34.92706 40 ft 8 kts 201°
2026-04-26 13:57 -8.11493 -34.92694 40 ft 12 kts 162°
2026-04-26 13:57 -8.11785 -34.92598 36 ft 81 kts 162°
2026-04-26 13:58 -8.12530 -34.92349 42 ft 142 kts 161°
2026-04-26 13:58 -8.13552 -34.92005 556 ft 155 kts 160°
2026-04-26 13:58 -8.14599 -34.91633 1296 ft 167 kts 157°
2026-04-26 13:58 -8.15506 -34.90944 2160 ft 167 kts 131°
2026-04-26 13:59 -8.16008 -34.89911 3069 ft 165 kts 108°
2026-04-26 13:59 -8.16303 -34.88742 3615 ft 183 kts 110°
2026-04-26 13:59 -8.16823 -34.87494 3882 ft 203 kts 134°
2026-04-26 14:00 -8.17943 -34.83730 5515 ft 234 kts 53°
2026-04-26 14:00 -8.16818 -34.82526 6116 ft 238 kts 52°
2026-04-26 14:00 -8.16102 -34.81688 6519 ft 238 kts 54°
2026-04-26 14:01 -8.14744 -34.79896 7192 ft 248 kts 57°
2026-04-26 14:01 -8.13714 -34.78381 7364 ft 275 kts 59°
2026-04-26 14:01 -8.12635 -34.76680 7566 ft 300 kts 60°
2026-04-26 14:01 -8.11503 -34.74805 7822 ft 321 kts 62°
2026-04-26 14:02 -8.10344 -34.72845 8356 ft 329 kts 61°
2026-04-26 14:02 -8.09168 -34.70842 9062 ft 332 kts 60°
2026-04-26 14:02 -8.07905 -34.68914 9791 ft 336 kts 55°
2026-04-26 14:02 -8.06475 -34.67001 10457 ft 339 kts 53°
2026-04-26 14:03 -8.05042 -34.65140 11117 ft 341 kts 53°
2026-04-26 14:03 -8.03588 -34.63245 11807 ft 342 kts 53°
2026-04-26 14:03 -8.02136 -34.61332 12521 ft 344 kts 53°
2026-04-26 14:03 -8.00680 -34.59400 13208 ft 347 kts 53°
2026-04-26 14:04 -7.99216 -34.57446 13878 ft 350 kts 54°
2026-04-26 14:04 -7.97746 -34.55480 14493 ft 353 kts 54°
2026-04-26 14:04 -7.96267 -34.53502 15182 ft 354 kts 53°
2026-04-26 14:04 -7.94698 -34.51563 15694 ft 361 kts 46°
2026-04-26 14:05 -7.92805 -34.49909 16430 ft 360 kts 37°
2026-04-26 14:05 -7.90649 -34.48582 16963 ft 367 kts 29°
2026-04-26 14:05 -7.88369 -34.47396 17587 ft 369 kts 27°
2026-04-26 14:05 -7.86062 -34.46239 18214 ft 372 kts 27°
2026-04-26 14:06 -7.83715 -34.45078 18682 ft 376 kts 27°
2026-04-26 14:06 -7.81362 -34.43975 19219 ft 378 kts 26°
2026-04-26 14:06 -7.78950 -34.42876 19598 ft 385 kts 26°
2026-04-26 14:06 -7.76464 -34.41751 19832 ft 396 kts 26°
2026-04-26 14:07 -7.73925 -34.40602 20146 ft 403 kts 26°
2026-04-26 14:07 -7.71365 -34.39441 20667 ft 403 kts 26°
2026-04-26 14:07 -7.68806 -34.38277 21122 ft 405 kts 26°
2026-04-26 14:07 -7.66221 -34.37097 21522 ft 409 kts 26°
2026-04-26 14:08 -7.63616 -34.35907 21930 ft 412 kts 26°
2026-04-26 14:08 -7.60990 -34.34705 22350 ft 415 kts 27°
2026-04-26 14:08 -7.58359 -34.33501 22767 ft 417 kts 27°
2026-04-26 14:08 -7.55705 -34.32286 23176 ft 420 kts 27°
2026-04-26 14:09 -7.53043 -34.31067 23560 ft 422 kts 27°
2026-04-26 14:09 -7.50357 -34.29838 23885 ft 424 kts 27°
2026-04-26 14:09 -7.47663 -34.28605 24203 ft 427 kts 27°
2026-04-26 14:09 -7.44984 -34.27379 24528 ft 428 kts 27°
2026-04-26 14:10 -7.42266 -34.26136 24843 ft 431 kts 27°
2026-04-26 14:10 -7.39526 -34.24883 25145 ft 433 kts 27°
2026-04-26 14:10 -7.36779 -34.23626 25455 ft 435 kts 27°
2026-04-26 14:10 -7.34015 -34.22362 25758 ft 437 kts 27°
2026-04-26 14:11 -7.28438 -34.19812 26349 ft 442 kts 26°
2026-04-26 14:11 -7.25630 -34.18529 26638 ft 444 kts 26°
2026-04-26 14:11 -7.22815 -34.17242 26927 ft 446 kts 26°
2026-04-26 14:12 -7.19979 -34.15946 27196 ft 448 kts 26°
2026-04-26 14:12 -7.17135 -34.14647 27474 ft 450 kts 26°
2026-04-26 14:12 -7.14278 -34.13342 27755 ft 452 kts 26°
2026-04-26 14:12 -7.11403 -34.12029 28022 ft 454 kts 26°
2026-04-26 14:13 -7.05620 -34.09388 28535 ft 458 kts 26°
2026-04-26 14:13 -7.02708 -34.08058 28782 ft 460 kts 26°
2026-04-26 14:13 -6.99787 -34.06724 29029 ft 462 kts 27°
2026-04-26 14:14 -6.96850 -34.05383 29272 ft 464 kts 27°
2026-04-26 14:14 -6.93892 -34.04034 29524 ft 466 kts 27°
2026-04-26 14:14 -6.90981 -34.02705 29765 ft 467 kts 27°
2026-04-26 14:14 -6.88972 -34.01789 29927 ft 469 kts 27°
2026-04-26 14:15 -6.84994 -33.99974 30284 ft 468 kts 27°
2026-04-26 14:15 -6.82063 -33.98638 30607 ft 467 kts 26°
2026-04-26 14:15 -6.79111 -33.97292 30945 ft 465 kts 26°
2026-04-26 14:15 -6.76163 -33.95948 31260 ft 464 kts 26°
2026-04-26 14:16 -6.74180 -33.95044 31472 ft 464 kts 26°
2026-04-26 14:16 -6.71275 -33.93719 31792 ft 463 kts 26°
2026-04-26 14:16 -6.68342 -33.92383 32123 ft 462 kts 26°
2026-04-26 14:16 -6.65421 -33.91051 32472 ft 460 kts 26°
2026-04-26 14:17 -6.62510 -33.89724 32813 ft 459 kts 26°
2026-04-26 14:17 -6.59607 -33.88401 33142 ft 458 kts 26°
2026-04-26 14:17 -6.56713 -33.87082 33505 ft 456 kts 26°
2026-04-26 14:17 -6.53832 -33.85770 33884 ft 454 kts 26°
2026-04-26 14:18 -6.50955 -33.84459 34185 ft 453 kts 25°
2026-04-26 14:18 -6.48081 -33.83150 34451 ft 452 kts 25°
2026-04-26 14:18 -6.45219 -33.81847 34761 ft 450 kts 25°
2026-04-26 14:18 -6.42366 -33.80548 34919 ft 447 kts 25°
2026-04-26 14:19 -6.39542 -33.79262 34941 ft 445 kts 25°
2026-04-26 14:19 -6.33942 -33.76713 34951 ft 444 kts 25°
2026-04-26 14:20 -6.28321 -33.74154 34961 ft 444 kts 25°
2026-04-26 14:20 -6.22671 -33.71583 34964 ft 449 kts 25°
2026-04-26 14:21 -6.16950 -33.68980 34960 ft 453 kts 25°
2026-04-26 14:21 -6.11190 -33.66361 34956 ft 455 kts 25°
2026-04-26 14:22 -6.05408 -33.63732 34954 ft 455 kts 25°
2026-04-26 14:22 -5.99670 -33.61124 34940 ft 448 kts 25°
2026-04-26 14:23 -5.94017 -33.58556 34958 ft 446 kts 25°
2026-04-26 14:23 -5.88361 -33.55985 34956 ft 446 kts 25°
2026-04-26 14:24 -5.82697 -33.53412 34954 ft 447 kts 25°
2026-04-26 14:24 -5.77016 -33.50832 34956 ft 448 kts 25°
2026-04-26 14:25 -5.71369 -33.48268 34950 ft 449 kts 25°
2026-04-26 14:25 -5.65673 -33.45682 34956 ft 449 kts 25°
2026-04-26 14:26 -5.59965 -33.43091 34950 ft 449 kts 25°
2026-04-26 14:26 -5.57102 -33.41792 34607 ft 455 kts 25°
2026-04-26 14:26 -5.54208 -33.40479 34041 ft 456 kts 25°
2026-04-26 14:26 -5.51316 -33.39167 33315 ft 456 kts 25°
2026-04-26 14:27 -5.48456 -33.37870 32697 ft 456 kts 25°
2026-04-26 14:27 -5.45583 -33.36567 32206 ft 451 kts 26°
2026-04-26 14:27 -5.42730 -33.35274 31706 ft 448 kts 26°
2026-04-26 14:27 -5.39900 -33.33991 31209 ft 446 kts 26°
2026-04-26 14:28 -5.37068 -33.32707 30709 ft 443 kts 26°
2026-04-26 14:28 -5.34266 -33.31436 30212 ft 441 kts 26°
2026-04-26 14:28 -5.31475 -33.30171 29665 ft 439 kts 26°
2026-04-26 14:28 -5.28698 -33.28912 29141 ft 435 kts 26°
2026-04-26 14:29 -5.25953 -33.27668 28626 ft 432 kts 26°
2026-04-26 14:29 -5.23225 -33.26431 28129 ft 428 kts 26°
2026-04-26 14:29 -5.20523 -33.25207 27639 ft 425 kts 26°
2026-04-26 14:29 -5.17837 -33.23990 27157 ft 421 kts 26°
2026-04-26 14:30 -5.15171 -33.22782 26674 ft 418 kts 26°
2026-04-26 14:30 -5.12524 -33.21583 26194 ft 416 kts 26°
2026-04-26 14:30 -5.09931 -33.20408 25709 ft 414 kts 26°
2026-04-26 14:30 -5.07307 -33.19219 25219 ft 412 kts 26°
2026-04-26 14:31 -5.04702 -33.18039 24741 ft 410 kts 26°
2026-04-26 14:31 -5.02106 -33.16863 24261 ft 408 kts 26°
2026-04-26 14:31 -4.99521 -33.15692 23786 ft 407 kts 26°
2026-04-26 14:31 -4.96937 -33.14522 23258 ft 406 kts 26°
2026-04-26 14:32 -4.94367 -33.13359 22742 ft 403 kts 26°
2026-04-26 14:32 -4.91850 -33.12219 22264 ft 400 kts 26°
2026-04-26 14:32 -4.89325 -33.11077 21792 ft 397 kts 26°
2026-04-26 14:32 -4.86812 -33.09939 21327 ft 394 kts 26°
2026-04-26 14:33 -4.84317 -33.08810 20870 ft 391 kts 26°
2026-04-26 14:33 -4.81845 -33.07691 20417 ft 388 kts 26°
2026-04-26 14:33 -4.79388 -33.06579 19947 ft 386 kts 26°
2026-04-26 14:33 -4.76943 -33.05472 19489 ft 384 kts 26°
2026-04-26 14:34 -4.74514 -33.04373 19034 ft 382 kts 26°
2026-04-26 14:34 -4.72102 -33.03282 18580 ft 380 kts 26°
2026-04-26 14:34 -4.69694 -33.02193 18115 ft 378 kts 26°
2026-04-26 14:34 -4.67299 -33.01109 17616 ft 376 kts 25°
2026-04-26 14:35 -4.64931 -33.00038 17166 ft 372 kts 25°
2026-04-26 14:35 -4.62578 -32.98974 16715 ft 369 kts 25°
2026-04-26 14:35 -4.60253 -32.97922 16279 ft 365 kts 26°
2026-04-26 14:35 -4.57941 -32.96877 15849 ft 362 kts 25°
2026-04-26 14:36 -4.55652 -32.95842 15420 ft 360 kts 26°
2026-04-26 14:36 -4.53379 -32.94814 14980 ft 357 kts 26°
2026-04-26 14:36 -4.51118 -32.93792 14552 ft 355 kts 26°
2026-04-26 14:36 -4.48869 -32.92775 14115 ft 354 kts 26°
2026-04-26 14:37 -4.46657 -32.91774 13683 ft 352 kts 26°
2026-04-26 14:37 -4.44427 -32.90766 13222 ft 350 kts 26°
2026-04-26 14:37 -4.42210 -32.89765 12804 ft 347 kts 26°
2026-04-26 14:37 -4.40047 -32.88787 12558 ft 338 kts 26°
2026-04-26 14:38 -4.37896 -32.87814 12126 ft 337 kts 26°
2026-04-26 14:38 -4.35773 -32.86855 11813 ft 332 kts 26°
2026-04-26 14:38 -4.33680 -32.85909 11483 ft 328 kts 26°
2026-04-26 14:38 -4.32300 -32.85286 11198 ft 327 kts 26°
2026-04-26 14:39 -4.29554 -32.84045 10506 ft 322 kts 26°
2026-04-26 14:39 -4.27529 -32.83130 10271 ft 315 kts 26°
2026-04-26 14:39 -4.25557 -32.82240 10126 ft 306 kts 26°
2026-04-26 14:39 -4.23665 -32.81386 9983 ft 298 kts 26°
2026-04-26 14:40 -4.21804 -32.80545 9901 ft 287 kts 26°
2026-04-26 14:40 -4.19973 -32.79717 9453 ft 291 kts 26°
2026-04-26 14:40 -4.18135 -32.78886 9117 ft 290 kts 26°
2026-04-26 14:40 -4.16296 -32.78054 8810 ft 289 kts 26°
2026-04-26 14:41 -4.14470 -32.77229 8507 ft 287 kts 26°
2026-04-26 14:41 -4.12653 -32.76408 8208 ft 286 kts 26°
2026-04-26 14:41 -4.10838 -32.75588 7901 ft 284 kts 26°
2026-04-26 14:41 -4.09040 -32.74776 7616 ft 283 kts 26°
2026-04-26 14:42 -4.07253 -32.73969 7327 ft 281 kts 26°
2026-04-26 14:42 -4.05493 -32.73174 7036 ft 280 kts 26°
2026-04-26 14:42 -4.03720 -32.72374 6754 ft 279 kts 26°
2026-04-26 14:42 -4.02074 -32.71630 6480 ft 279 kts 26°
2026-04-26 14:43 -4.00312 -32.70834 6175 ft 278 kts 26°
2026-04-26 14:43 -3.98555 -32.70040 5873 ft 276 kts 26°
2026-04-26 14:43 -3.96804 -32.69250 5578 ft 275 kts 26°
2026-04-26 14:43 -3.95062 -32.68464 5302 ft 274 kts 26°
2026-04-26 14:44 -3.93324 -32.67679 5046 ft 272 kts 26°
2026-04-26 14:44 -3.91602 -32.66903 4774 ft 271 kts 26°
2026-04-26 14:44 -3.89890 -32.66130 4508 ft 269 kts 26°
2026-04-26 14:44 -3.88189 -32.65363 4238 ft 265 kts 26°
2026-04-26 14:45 -3.86536 -32.64619 3980 ft 256 kts 26°
2026-04-26 14:45 -3.85499 -32.64095 3808 ft 248 kts 37°
2026-04-26 14:45 -3.84214 -32.62358 3509 ft 229 kts 75°
2026-04-26 14:45 -3.83998 -32.60831 3315 ft 216 kts 94°
2026-04-26 14:46 -3.84089 -32.59380 3136 ft 203 kts 97°
2026-04-26 14:46 -3.84209 -32.57996 2940 ft 196 kts 97°
2026-04-26 14:46 -3.84328 -32.56663 2752 ft 189 kts 98°
2026-04-26 14:46 -3.84458 -32.55380 2587 ft 181 kts 97°
2026-04-26 14:47 -3.84557 -32.54132 2376 ft 180 kts 97°
2026-04-26 14:47 -3.84651 -32.52870 2142 ft 183 kts 97°
2026-04-26 14:47 -3.84746 -32.51594 1896 ft 185 kts 97°
2026-04-26 14:47 -3.84842 -32.50315 1645 ft 184 kts 97°
2026-04-26 14:48 -3.84936 -32.49055 1400 ft 178 kts 97°
2026-04-26 14:48 -3.85026 -32.47849 1171 ft 168 kts 96°
2026-04-26 14:48 -3.85110 -32.46745 1033 ft 146 kts 98°
2026-04-26 14:48 -3.85192 -32.45754 967 ft 145 kts 97°
2026-04-26 14:49 -3.85260 -32.44730 712 ft 148 kts 96°
2026-04-26 14:49 -3.85327 -32.43723 414 ft 145 kts 96°
2026-04-26 14:49 -3.85404 -32.42753 171 ft 132 kts 96°
2026-04-26 14:49 -3.85473 -32.41957 175 ft 93 kts 94°
2026-04-26 14:50 -3.85508 -32.41534 175 ft 10 kts 95°
2026-04-26 14:50 -3.85489 -32.41497 175 ft 0 kts 26°
2026-04-26 14:50 -3.85480 -32.41503 175 ft 2 kts 309°
2026-04-26 14:50 -3.85488 -32.41530 175 ft 10 kts 249°
2026-04-26 14:51 -3.85495 -32.41628 176 ft 19 kts 275°
2026-04-26 14:51 -3.85481 -32.41800 174 ft 30 kts 274°
2026-04-26 14:51 -3.85462 -32.42039 174 ft 38 kts 274°
2026-04-26 14:51 -3.85440 -32.42327 167 ft 43 kts 274°
2026-04-26 14:52 -3.85419 -32.42613 167 ft 35 kts 274°
2026-04-26 14:52 -3.85437 -32.42730 165 ft 10 kts 201°
2026-04-26 14:52 -3.85501 -32.42750 167 ft 9 kts 200°
2026-04-26 14:52 -3.85550 -32.42768 169 ft 2 kts 199°
2026-04-26 14:53 -3.85563 -32.42772 169 ft 2 kts 204°
2026-04-26 14:53 -3.85563 -32.42787 169 ft 4 kts 287°
2026-04-26 14:53 -3.85554 -32.42831 169 ft 7 kts 276°
2026-04-26 14:53 -3.85564 -32.42860 169 ft 4 kts 208°
2026-04-26 14:54 -3.85587 -32.42864 169 ft 0 kts 185°
2026-04-26 14:54 -3.85591 -32.42864 169 ft 0 kts 185°
2026-04-26 14:54 -3.85592 -32.42864 169 ft 0 kts 185°